• en France
  • Liste des pays
  • À 7 jours
  • Température de l'eau
  • Carte satellitaire
  • Carte météo
  • Widgets météo
  • user-avatar
    Se connecter

    Météo par heure à Gimry

    Ce jour, 17 Octobre, Mercredi

    Heure Température Précipitation Vent Pression Humidité
    00:00 +15°C° 0 mm 2 m/s 726 mmHg 76%
    01:00 +14°C° 0 mm 2 m/s 726 mmHg 75%
    02:00 +14°C° 0 mm 2 m/s 725 mmHg 74%
    03:00 +14°C° 0 mm 2 m/s 725 mmHg 73%
    04:00 +14°C° 0 mm 2 m/s 725 mmHg 72%
    05:00 +14°C° 0 mm 2 m/s 725 mmHg 70%
    06:00 +13°C° 0 mm 2 m/s 725 mmHg 69%
    07:00 +16°C° 0 mm 2 m/s 725 mmHg 61%
    08:00 +18°C° 0 mm 2 m/s 725 mmHg 54%
    09:00 +20°C° 0 mm 2 m/s 726 mmHg 46%
    10:00 +21°C° 0 mm 2 m/s 725 mmHg 45%
    11:00 +22°C° 0 mm 3 m/s 725 mmHg 44%
    12:00 +24°C° 0 mm 3 m/s 725 mmHg 43%
    13:00 +24°C° 0 mm 3 m/s 725 mmHg 46%
    14:00 +22°C° 0 mm 3 m/s 724 mmHg 50%
    15:00 +22°C° 0 mm 3 m/s 724 mmHg 54%
    16:00 +20°C° 0 mm 3 m/s 724 mmHg 64%
    17:00 +18°C° 0 mm 2 m/s 724 mmHg 74%
    18:00 +17°C° 0 mm 2 m/s 724 mmHg 84%
    19:00 +16°C° 0 mm 2 m/s 724 mmHg 83%
    20:00 +16°C° 0 mm 2 m/s 724 mmHg 82%
    21:00 +16°C° 0 mm 2 m/s 724 mmHg 81%
    22:00 +15°C° 0 mm 2 m/s 723 mmHg 78%
    23:00 +15°C° 0 mm 2 m/s 723 mmHg 76%

    Demain, 18 Octobre, Jeudi

    Heure Température Précipitation Vent Pression Humidité
    00:00 +15°C° 0 mm 2 m/s 723 mmHg 73%
    01:00 +15°C° 0 mm 2 m/s 723 mmHg 71%
    02:00 +14°C° 0 mm 1 m/s 723 mmHg 69%
    03:00 +14°C° 0 mm 1 m/s 723 mmHg 66%
    04:00 +14°C° 0 mm 1 m/s 723 mmHg 63%
    05:00 +14°C° 0 mm 1 m/s 722 mmHg 60%
    06:00 +13°C° 0 mm 1 m/s 722 mmHg 57%
    07:00 +16°C° 0 mm 1 m/s 723 mmHg 52%
    08:00 +19°C° 0 mm 1 m/s 723 mmHg 46%
    09:00 +21°C° 0 mm 1 m/s 723 mmHg 40%
    10:00 +22°C° 0 mm 1 m/s 723 mmHg 39%
    11:00 +23°C° 0 mm 2 m/s 723 mmHg 38%
    12:00 +24°C° 0 mm 2 m/s 723 mmHg 37%
    13:00 +22°C° 0 mm 3 m/s 723 mmHg 41%
    14:00 +22°C° 0 mm 3 m/s 723 mmHg 44%
    15:00 +22°C° 0 mm 3 m/s 723 mmHg 48%
    16:00 +20°C° 0 mm 2 m/s 722 mmHg 59%
    17:00 +18°C° 0 mm 2 m/s 722 mmHg 70%
    18:00 +16°C° 0 mm 1 m/s 722 mmHg 81%
    19:00 +16°C° 0 mm 1 m/s 723 mmHg 79%
    20:00 +16°C° 0 mm 2 m/s 723 mmHg 77%
    21:00 +15°C° 0 mm 2 m/s 723 mmHg 74%
    22:00 +15°C° 0 mm 2 m/s 723 mmHg 70%
    23:00 +15°C° 0 mm 2 m/s 723 mmHg 66%

    Après-demain, 19 Octobre, Vendredi

    Heure Température Précipitation Vent Pression Humidité
    00:00 +15°C° 0 mm 2 m/s 723 mmHg 62%
    01:00 +15°C° 0 mm 2 m/s 722 mmHg 59%
    02:00 +14°C° 0 mm 2 m/s 722 mmHg 56%
    03:00 +14°C° 0 mm 2 m/s 722 mmHg 54%
    04:00 +14°C° 0 mm 2 m/s 722 mmHg 52%
    05:00 +14°C° 0 mm 2 m/s 722 mmHg 50%
    06:00 +14°C° 0 mm 2 m/s 722 mmHg 48%
    07:00 +16°C° 0 mm 2 m/s 722 mmHg 43%
    08:00 +18°C° 0 mm 2 m/s 723 mmHg 38%
    09:00 +21°C° 0 mm 2 m/s 723 mmHg 33%
    10:00 +23°C° 0 mm 2 m/s 723 mmHg 31%
    11:00 +24°C° 0 mm 3 m/s 722 mmHg 30%
    12:00 +25°C° 0 mm 3 m/s 722 mmHg 28%
    13:00 +25°C° 0 mm 3 m/s 722 mmHg 32%
    14:00 +25°C° 0 mm 3 m/s 722 mmHg 36%
    15:00 +24°C° 0 mm 3 m/s 721 mmHg 40%
    16:00 +21°C° 0 mm 3 m/s 721 mmHg 50%
    17:00 +19°C° 0 mm 2 m/s 721 mmHg 59%
    18:00 +17°C° 0 mm 2 m/s 721 mmHg 68%
    19:00 +17°C° 0 mm 2 m/s 721 mmHg 66%
    20:00 +17°C° 0 mm 2 m/s 721 mmHg 64%
    21:00 +17°C° 0 mm 2 m/s 721 mmHg 62%
    22:00 +16°C° 0 mm 2 m/s 721 mmHg 61%
    23:00 +16°C° 0 mm 3 m/s 720 mmHg 60%

    20 Octobre, Samedi

    Heure Température Précipitation Vent Pression Humidité
    00:00 +16°C° 0 mm 3 m/s 720 mmHg 59%
    01:00 +16°C° 0 mm 3 m/s 720 mmHg 58%
    02:00 +16°C° 0 mm 3 m/s 720 mmHg 57%
    03:00 +14°C° 0 mm 3 m/s 720 mmHg 56%
    04:00 +14°C° 0 mm 3 m/s 720 mmHg 53%
    05:00 +14°C° 0 mm 3 m/s 720 mmHg 51%
    06:00 +14°C° 0 mm 3 m/s 719 mmHg 48%
    07:00 +18°C° 0 mm 2 m/s 720 mmHg 42%
    08:00 +20°C° 0 mm 2 m/s 720 mmHg 36%
    09:00 +24°C° 0 mm 1 m/s 720 mmHg 30%
    10:00 +25°C° 0 mm 2 m/s 720 mmHg 29%
    11:00 +26°C° 0 mm 2 m/s 720 mmHg 28%
    12:00 +27°C° 0 mm 2 m/s 720 mmHg 26%
    13:00 +26°C° 0 mm 2 m/s 719 mmHg 29%
    14:00 +26°C° 0 mm 2 m/s 719 mmHg 32%
    15:00 +26°C° 0 mm 2 m/s 719 mmHg 35%
    16:00 +24°C° 0 mm 2 m/s 719 mmHg 42%
    17:00 +22°C° 0 mm 1 m/s 719 mmHg 50%
    18:00 +20°C° 0 mm 1 m/s 719 mmHg 58%
    19:00 +19°C° 0 mm 1 m/s 719 mmHg 56%
    20:00 +19°C° 0 mm 1 m/s 719 mmHg 54%
    21:00 +19°C° 0 mm 1 m/s 719 mmHg 52%
    22:00 +19°C° 0 mm 1 m/s 719 mmHg 51%
    23:00 +18°C° 0 mm 1 m/s 719 mmHg 50%

    21 Octobre, Dimanche

    Heure Température Précipitation Vent Pression Humidité
    00:00 +18°C° 0 mm 1 m/s 719 mmHg 49%
    01:00 +18°C° 0 mm 1 m/s 718 mmHg 49%
    02:00 +18°C° 0 mm 1 m/s 718 mmHg 49%
    03:00 +16°C° 0 mm 1 m/s 718 mmHg 49%
    04:00 +16°C° 0 mm 1 m/s 718 mmHg 49%
    05:00 +16°C° 0 mm 1 m/s 718 mmHg 49%
    06:00 +16°C° 0 mm 1 m/s 718 mmHg 49%
    07:00 +19°C° 0 mm 1 m/s 718 mmHg 45%
    08:00 +21°C° 0 mm 1 m/s 718 mmHg 42%
    09:00 +21°C° 0 mm 0 m/s 719 mmHg 38%
    10:00 +24°C° 0 mm 1 m/s 718 mmHg 37%
    11:00 +24°C° 0 mm 1 m/s 718 mmHg 37%
    12:00 +25°C° 0 mm 2 m/s 718 mmHg 36%
    13:00 +25°C° 0 mm 2 m/s 717 mmHg 39%
    14:00 +25°C° 0 mm 2 m/s 717 mmHg 41%
    15:00 +24°C° 0 mm 2 m/s 717 mmHg 44%
    16:00 +23°C° 0 mm 1 m/s 717 mmHg 51%
    17:00 +21°C° 0 mm 1 m/s 717 mmHg 58%
    18:00 +18°C° 0 mm 0 m/s 717 mmHg 65%
    19:00 +17°C° 0 mm 0 m/s 717 mmHg 66%
    20:00 +19°C° 0 mm 1 m/s 717 mmHg 67%
    21:00 +18°C° 0 mm 1 m/s 717 mmHg 68%
    22:00 +18°C° 0 mm 1 m/s 717 mmHg 69%
    23:00 +18°C° 0 mm 1 m/s 717 mmHg 69%

    22 Octobre, Lundi

    Heure Température Précipitation Vent Pression Humidité
    00:00 +16°C° 0 mm 1 m/s 717 mmHg 70%
    01:00 +16°C° 0 mm 1 m/s 717 mmHg 70%
    02:00 +16°C° 0 mm 1 m/s 717 mmHg 70%
    03:00 +16°C° 0 mm 1 m/s 717 mmHg 70%
    04:00 +16°C° 0 mm 1 m/s 717 mmHg 71%
    05:00 +16°C° 0 mm 1 m/s 717 mmHg 71%
    06:00 +16°C° 0 mm 1 m/s 717 mmHg 72%
    07:00 +18°C° 0 mm 1 m/s 717 mmHg 67%
    08:00 +20°C° 0 mm 1 m/s 718 mmHg 62%
    09:00 +21°C° 0 mm 1 m/s 718 mmHg 57%
    10:00 +22°C° 0 mm 1 m/s 718 mmHg 54%
    11:00 +23°C° 0 mm 2 m/s 718 mmHg 52%
    12:00 +24°C° 0 mm 2 m/s 718 mmHg 49%
    13:00 +24°C° 0 mm 2 m/s 718 mmHg 52%
    14:00 +23°C° 0 mm 2 m/s 718 mmHg 54%
    15:00 +23°C° 0 mm 2 m/s 718 mmHg 57%
    16:00 +21°C° 0.1 mm 2 m/s 718 mmHg 64%
    17:00 +20°C° 0.1 mm 1 m/s 718 mmHg 72%
    18:00 +19°C° 0.1 mm 1 m/s 719 mmHg 80%
    19:00 +19°C° 0.1 mm 1 m/s 719 mmHg 81%
    20:00 +18°C° 0.1 mm 1 m/s 719 mmHg 83%
    21:00 +18°C° 0.1 mm 1 m/s 719 mmHg 84%
    22:00 +18°C° 0 mm 1 m/s 719 mmHg 83%
    23:00 +16°C° 0 mm 1 m/s 719 mmHg 82%
    Voir plus